Location: Peebles
(55.6412°N, 3.1714°W)
Time: 23:49:06
(UTC+00:00)

Cosmos 2366 rocket - Visible Passes

Search period start: 27 January 2022 00:00
Search period end: 06 February 2022 00:00
Orbit: 954 x 998 km, 82.9° (Epoch: 27 January)

Date Brightness Start Highest point End Pass type
(mag) Time Alt. Az. Time Alt. Az. Time Alt. Az.
27 Jan 6.6 04:24:42 10° ESE 04:28:24 17° ENE 04:32:06 10° NE visible
27 Jan 4.2 06:06:39 10° S 06:12:46 73° E 06:18:54 10° NNE visible
27 Jan 6.5 18:40:31 10° NNW 18:45:04 22° W 18:49:38 10° SW visible
28 Jan 6.0 04:48:30 10° SE 04:53:28 26° E 04:58:27 10° NNE visible
28 Jan 3.9 06:32:12 10° SSW 06:38:21 73° WNW 06:44:31 10° N visible
28 Jan 4.7 17:19:50 10° NNW 17:25:55 60° W 17:32:01 10° S visible
28 Jan 6.9 19:07:12 10° NW 19:10:04 14° WNW 19:12:57 10° W visible
29 Jan 5.2 05:13:01 10° SSE 05:18:42 41° E 05:24:24 10° NNE visible
29 Jan 4.2 06:58:11 10° SW 07:04:04 47° WNW 07:10:02 10° N visible
29 Jan 5.6 17:45:38 10° NNW 17:51:17 38° W 17:56:57 10° SSW visible
30 Jan 6.7 03:56:38 10° ESE 03:59:51 15° ENE 04:03:04 10° NE visible
30 Jan 4.3 05:38:02 10° S 05:44:04 66° E 05:50:11 10° NNE visible
30 Jan 4.7 07:24:36 10° WSW 07:29:59 31° WNW 07:35:26 10° N visible
30 Jan 6.4 18:11:38 10° NNW 18:16:29 25° W 18:21:20 10° SW visible
31 Jan 6.1 04:20:11 10° SE 04:24:53 24° E 04:29:36 10° NNE visible
31 Jan 3.9 06:03:28 10° SSW 06:09:37 81° WNW 06:15:49 10° N visible
31 Jan 6.8 18:38:06 10° NW 18:41:32 15° WNW 18:44:59 10° WSW visible
01 Feb 5.4 04:44:32 10° SSE 04:50:04 37° E 04:55:38 10° NNE visible
01 Feb 4.1 06:29:20 10° SSW 06:35:19 52° WNW 06:41:22 10° N visible
01 Feb 5.4 17:16:52 10° NNW 17:22:39 43° W 17:28:28 10° SSW visible
02 Feb 6.8 03:28:40 10° E 03:31:19 13° ENE 03:33:58 10° NE visible
02 Feb 4.5 05:09:25 10° S 05:15:24 59° E 05:21:27 10° NNE visible
02 Feb 4.5 06:55:39 10° SW 07:01:11 34° WNW 07:06:47 10° N visible
02 Feb 6.2 17:42:49 10° NNW 17:47:54 27° W 17:53:02 10° SW visible
03 Feb 6.2 03:51:53 10° SE 03:56:18 21° ENE 04:00:44 10° NNE visible
03 Feb 3.9 05:34:46 10° S 05:40:55 90° W 05:47:07 10° NNE visible
03 Feb 5.0 07:22:26 10° WSW 07:27:14 23° NW 07:32:05 10° N visible
03 Feb 6.7 18:09:06 10° NW 18:12:59 18° WNW 18:16:53 10° WSW visible
04 Feb 5.5 04:16:05 10° SSE 04:21:27 33° E 04:26:51 10° NNE visible
04 Feb 4.0 06:00:32 10° SSW 06:06:35 59° WNW 06:12:41 10° N visible
04 Feb 7.1 18:36:49 10° WNW 18:37:55 10° WNW 18:39:01 10° W visible
05 Feb 6.8 03:00:55 10° E 03:02:47 11° ENE 03:04:40 10° NE visible
05 Feb 4.7 04:40:51 10° SSE 04:46:45 52° E 04:52:43 10° NNE visible
05 Feb 4.4 06:26:44 10° SW 06:32:24 38° WNW 06:38:08 10° N visible
